Year,Month,Day,Hour,Minute,Value (Times are PST for temperature in C)
2010,10,16,00,00,7.30
2010,10,16,00,01,7.30
2010,10,16,00,02,7.30
2010,10,16,00,03,7.30
2010,10,16,00,04,7.30
2010,10,16,00,05,7.30
2010,10,16,00,06,7.30
2010,10,16,00,07,7.30
2010,10,16,00,08,7.30
2010,10,16,00,09,7.30
2010,10,16,00,10,7.30
2010,10,16,00,11,7.30
2010,10,16,00,12,7.30
2010,10,16,00,13,7.20
2010,10,16,00,14,7.20
2010,10,16,00,15,7.20
2010,10,16,00,16,7.20
2010,10,16,00,17,7.20
2010,10,16,00,18,7.20
2010,10,16,00,19,7.20
2010,10,16,00,20,7.20
2010,10,16,00,21,7.10
2010,10,16,00,22,7.10
2010,10,16,00,23,7.10
2010,10,16,00,24,7.10
2010,10,16,00,25,7.10
2010,10,16,00,26,7.10
2010,10,16,00,27,7.10
2010,10,16,00,28,7.10
2010,10,16,00,29,7.10
2010,10,16,00,30,7.10
2010,10,16,00,31,7.10
2010,10,16,00,32,7.10
2010,10,16,00,33,7.10
2010,10,16,00,34,7.10
2010,10,16,00,35,7.10
2010,10,16,00,36,7.10
2010,10,16,00,37,7.10
2010,10,16,00,38,7.00
2010,10,16,00,39,7.00
2010,10,16,00,40,7.00
2010,10,16,00,41,7.00
2010,10,16,00,42,7.00
2010,10,16,00,43,7.00
2010,10,16,00,44,7.00
2010,10,16,00,45,6.90
2010,10,16,00,46,6.90
2010,10,16,00,47,6.90
2010,10,16,00,48,6.90
2010,10,16,00,49,6.90
2010,10,16,00,50,6.80
2010,10,16,00,51,6.80
2010,10,16,00,52,6.80
2010,10,16,00,53,6.80
2010,10,16,00,54,6.80
2010,10,16,00,55,6.80
2010,10,16,00,56,6.80
2010,10,16,00,57,6.80
2010,10,16,00,58,6.80
2010,10,16,00,59,6.70
2010,10,16,01,00,6.70
2010,10,16,01,01,6.70
2010,10,16,01,02,6.70
2010,10,16,01,03,6.60
2010,10,16,01,04,6.60
2010,10,16,01,05,6.60
2010,10,16,01,06,6.60
2010,10,16,01,07,6.60
2010,10,16,01,08,6.50
2010,10,16,01,09,6.40
2010,10,16,01,10,6.40
2010,10,16,01,11,6.40
2010,10,16,01,12,6.40
2010,10,16,01,13,6.40
2010,10,16,01,14,6.40
2010,10,16,01,15,6.40
2010,10,16,01,16,6.40
2010,10,16,01,17,6.40
2010,10,16,01,18,6.30
2010,10,16,01,19,6.30
2010,10,16,01,20,6.30
2010,10,16,01,21,6.30
2010,10,16,01,22,6.30
2010,10,16,01,23,6.30
2010,10,16,01,24,6.30
2010,10,16,01,25,6.30
2010,10,16,01,26,6.30
2010,10,16,01,27,6.30
2010,10,16,01,28,6.30
2010,10,16,01,29,6.30
2010,10,16,01,30,6.30
2010,10,16,01,31,6.30
2010,10,16,01,32,6.30
2010,10,16,01,33,6.30
2010,10,16,01,34,6.30
2010,10,16,01,35,6.30
2010,10,16,01,36,6.30
2010,10,16,01,37,6.30
2010,10,16,01,38,6.30
2010,10,16,01,39,6.30
2010,10,16,01,40,6.30
2010,10,16,01,41,6.30
2010,10,16,01,42,6.30
2010,10,16,01,43,6.30
2010,10,16,01,44,6.30
2010,10,16,01,45,6.30
2010,10,16,01,46,6.30
2010,10,16,01,47,6.30
2010,10,16,01,48,6.30
2010,10,16,01,49,6.30
2010,10,16,01,50,6.30
2010,10,16,01,51,6.30
2010,10,16,01,52,6.30
2010,10,16,01,53,6.40
2010,10,16,01,54,6.40
2010,10,16,01,55,6.40
2010,10,16,01,56,6.40
2010,10,16,01,57,6.40
2010,10,16,01,58,6.40
2010,10,16,01,59,6.40
2010,10,16,02,00,6.40
2010,10,16,02,01,6.40
2010,10,16,02,02,6.50
2010,10,16,02,03,6.60
2010,10,16,02,04,6.60
2010,10,16,02,05,6.60
2010,10,16,02,06,6.60
2010,10,16,02,07,6.60
2010,10,16,02,08,6.60
2010,10,16,02,09,6.60
2010,10,16,02,10,6.60
2010,10,16,02,11,6.70
2010,10,16,02,12,6.70
2010,10,16,02,13,6.70
2010,10,16,02,14,6.70
2010,10,16,02,15,6.80
2010,10,16,02,16,6.80
2010,10,16,02,17,6.80
2010,10,16,02,18,6.80
2010,10,16,02,19,6.70
2010,10,16,02,20,6.70
2010,10,16,02,21,6.70
2010,10,16,02,22,6.70
2010,10,16,02,23,6.70
2010,10,16,02,24,6.70
2010,10,16,02,25,6.70
2010,10,16,02,26,6.60
2010,10,16,02,27,6.60
2010,10,16,02,28,6.60
2010,10,16,02,29,6.60
2010,10,16,02,30,6.60
2010,10,16,02,31,6.60
2010,10,16,02,32,6.60
2010,10,16,02,33,6.60
2010,10,16,02,34,6.60
2010,10,16,02,35,6.60
2010,10,16,02,36,6.60
2010,10,16,02,37,6.60
2010,10,16,02,38,6.60
2010,10,16,02,39,6.60
2010,10,16,02,40,6.60
2010,10,16,02,41,6.60
2010,10,16,02,42,6.60
2010,10,16,02,43,6.60
2010,10,16,02,44,6.70
2010,10,16,02,45,6.70
2010,10,16,02,46,6.70
2010,10,16,02,47,6.70
2010,10,16,02,48,6.70
2010,10,16,02,49,6.70
2010,10,16,02,50,6.70
2010,10,16,02,51,6.80
2010,10,16,02,52,6.80
2010,10,16,02,53,6.80
2010,10,16,02,54,6.80
2010,10,16,02,55,6.80
2010,10,16,02,56,6.80
2010,10,16,02,57,6.80
2010,10,16,02,58,6.80
2010,10,16,02,59,6.80
2010,10,16,03,00,6.80
2010,10,16,03,01,6.80
2010,10,16,03,02,6.80
2010,10,16,03,03,6.80
2010,10,16,03,04,6.80
2010,10,16,03,05,6.80
2010,10,16,03,06,6.80
2010,10,16,03,07,6.80
2010,10,16,03,08,6.80
2010,10,16,03,09,6.80
2010,10,16,03,10,6.80
2010,10,16,03,11,6.80
2010,10,16,03,12,6.80
2010,10,16,03,13,6.90
2010,10,16,03,14,6.90
2010,10,16,03,15,6.90
2010,10,16,03,16,6.90
2010,10,16,03,17,7.00
2010,10,16,03,18,7.00
2010,10,16,03,19,7.00
2010,10,16,03,20,7.10
2010,10,16,03,21,7.10
2010,10,16,03,22,7.10
2010,10,16,03,23,7.20
2010,10,16,03,24,7.20
2010,10,16,03,25,7.30
2010,10,16,03,26,7.30
2010,10,16,03,27,7.30
2010,10,16,03,28,7.30
2010,10,16,03,29,7.30
2010,10,16,03,30,7.30
2010,10,16,03,31,7.30
2010,10,16,03,32,7.30
2010,10,16,03,33,7.30
2010,10,16,03,34,7.30
2010,10,16,03,35,7.30
2010,10,16,03,36,7.30
2010,10,16,03,37,7.30
2010,10,16,03,38,7.30
2010,10,16,03,39,7.30
2010,10,16,03,40,7.30
2010,10,16,03,41,7.30
2010,10,16,03,42,7.30
2010,10,16,03,43,7.30
2010,10,16,03,44,7.30
2010,10,16,03,45,7.30
2010,10,16,03,46,7.30
2010,10,16,03,47,7.30
2010,10,16,03,48,7.30
2010,10,16,03,49,7.30
2010,10,16,03,50,7.30
2010,10,16,03,51,7.30
2010,10,16,03,52,7.30
2010,10,16,03,53,7.30
2010,10,16,03,54,7.30
2010,10,16,03,55,7.30
2010,10,16,03,56,7.30
2010,10,16,03,57,7.30
2010,10,16,03,58,7.30
2010,10,16,03,59,7.30
2010,10,16,04,00,7.40
2010,10,16,04,01,7.40
2010,10,16,04,02,7.40
2010,10,16,04,03,7.40
2010,10,16,04,04,7.40
2010,10,16,04,05,7.30
2010,10,16,04,06,7.30
2010,10,16,04,07,7.30
2010,10,16,04,08,7.30
2010,10,16,04,09,7.30
2010,10,16,04,10,7.30
2010,10,16,04,11,7.30
2010,10,16,04,12,7.30
2010,10,16,04,13,7.30
2010,10,16,04,14,7.30
2010,10,16,04,15,7.30
2010,10,16,04,16,7.30
2010,10,16,04,17,7.30
2010,10,16,04,18,7.30
2010,10,16,04,19,7.30
2010,10,16,04,20,7.30
2010,10,16,04,21,7.30
2010,10,16,04,22,7.30
2010,10,16,04,23,7.30
2010,10,16,04,24,7.30
2010,10,16,04,25,7.30
2010,10,16,04,26,7.20
2010,10,16,04,27,7.20
2010,10,16,04,28,7.20
2010,10,16,04,29,7.20
2010,10,16,04,30,7.20
2010,10,16,04,31,7.20
2010,10,16,04,32,7.20
2010,10,16,04,33,7.20
2010,10,16,04,34,7.20
2010,10,16,04,35,7.20
2010,10,16,04,36,7.20
2010,10,16,04,37,7.20
2010,10,16,04,38,7.20
2010,10,16,04,39,7.20
2010,10,16,04,40,7.20
2010,10,16,04,41,7.20
2010,10,16,04,42,7.20
2010,10,16,04,43,7.20
2010,10,16,04,44,7.20
2010,10,16,04,45,7.20
2010,10,16,04,46,7.20
2010,10,16,04,47,7.20
2010,10,16,04,48,7.20
2010,10,16,04,49,7.20
2010,10,16,04,50,7.30
2010,10,16,04,51,7.30
2010,10,16,04,52,7.30
2010,10,16,04,53,7.30
2010,10,16,04,54,7.30
2010,10,16,04,55,7.30
2010,10,16,04,56,7.30
2010,10,16,04,57,7.30
2010,10,16,04,58,7.30
2010,10,16,04,59,7.30
2010,10,16,05,00,7.30
2010,10,16,05,01,7.30
2010,10,16,05,02,7.30
2010,10,16,05,03,7.30
2010,10,16,05,04,7.40
2010,10,16,05,05,7.40
2010,10,16,05,06,7.40
2010,10,16,05,07,7.40
2010,10,16,05,08,7.40
2010,10,16,05,09,7.40
2010,10,16,05,10,7.40
2010,10,16,05,11,7.40
2010,10,16,05,12,7.40
2010,10,16,05,13,7.40
2010,10,16,05,14,7.40
2010,10,16,05,15,7.40
2010,10,16,05,16,7.30
2010,10,16,05,17,7.30
2010,10,16,05,18,7.30
2010,10,16,05,19,7.30
2010,10,16,05,20,7.30
2010,10,16,05,21,7.30
2010,10,16,05,22,7.30
2010,10,16,05,23,7.30
2010,10,16,05,24,7.30
2010,10,16,05,25,7.20
2010,10,16,05,26,7.20
2010,10,16,05,27,7.20
2010,10,16,05,28,7.10
2010,10,16,05,29,7.10
2010,10,16,05,30,7.10
2010,10,16,05,31,7.10
2010,10,16,05,32,7.00
2010,10,16,05,33,7.00
2010,10,16,05,34,7.00
2010,10,16,05,35,7.00
2010,10,16,05,36,6.90
2010,10,16,05,37,6.90
2010,10,16,05,38,6.90
2010,10,16,05,39,6.90
2010,10,16,05,40,6.90
2010,10,16,05,41,6.90
2010,10,16,05,42,6.90
2010,10,16,05,43,6.90
2010,10,16,05,44,6.80
2010,10,16,05,45,6.80
2010,10,16,05,46,6.80
2010,10,16,05,47,6.80
2010,10,16,05,48,6.80
2010,10,16,05,49,6.80
2010,10,16,05,50,6.80
2010,10,16,05,51,6.80
2010,10,16,05,52,6.80
2010,10,16,05,53,6.80
2010,10,16,05,54,6.80
2010,10,16,05,55,6.80
2010,10,16,05,56,6.80
2010,10,16,05,57,6.80
2010,10,16,05,58,6.80
2010,10,16,05,59,6.80
2010,10,16,06,00,6.80
2010,10,16,06,01,6.80
2010,10,16,06,02,6.80
2010,10,16,06,03,6.80
2010,10,16,06,04,6.80
2010,10,16,06,05,6.80
2010,10,16,06,06,6.70
2010,10,16,06,07,6.70
2010,10,16,06,08,6.70
2010,10,16,06,09,6.70
2010,10,16,06,10,6.70
2010,10,16,06,11,6.70
2010,10,16,06,12,6.70
2010,10,16,06,13,6.60
2010,10,16,06,14,6.60
2010,10,16,06,15,6.60
2010,10,16,06,16,6.60
2010,10,16,06,17,6.60
2010,10,16,06,18,6.60
2010,10,16,06,19,6.50
2010,10,16,06,20,6.40
2010,10,16,06,21,6.40
2010,10,16,06,22,6.30
2010,10,16,06,23,6.30
2010,10,16,06,24,6.20
2010,10,16,06,25,6.20
2010,10,16,06,26,6.20
2010,10,16,06,27,6.20
2010,10,16,06,28,6.10
2010,10,16,06,29,6.10
2010,10,16,06,30,6.00
2010,10,16,06,31,6.00
2010,10,16,06,32,6.00
2010,10,16,06,33,5.90
2010,10,16,06,34,5.90
2010,10,16,06,35,5.90
2010,10,16,06,36,5.90
2010,10,16,06,37,5.80
2010,10,16,06,38,5.80
2010,10,16,06,39,5.80
2010,10,16,06,40,5.80
2010,10,16,06,41,5.80
2010,10,16,06,42,5.80
2010,10,16,06,43,5.80
2010,10,16,06,44,5.80
2010,10,16,06,45,5.80
2010,10,16,06,46,5.80
2010,10,16,06,47,5.70
2010,10,16,06,48,5.70
2010,10,16,06,49,5.70
2010,10,16,06,50,5.70
2010,10,16,06,51,5.70
2010,10,16,06,52,5.70
2010,10,16,06,53,5.70
2010,10,16,06,54,5.70
2010,10,16,06,55,5.70
2010,10,16,06,56,5.60
2010,10,16,06,57,5.60
2010,10,16,06,58,5.60
2010,10,16,06,59,5.60
2010,10,16,07,00,5.60
2010,10,16,07,01,5.60
2010,10,16,07,02,5.60
2010,10,16,07,03,5.60
2010,10,16,07,04,5.60
2010,10,16,07,05,5.60
2010,10,16,07,06,5.60
2010,10,16,07,07,5.60
2010,10,16,07,08,5.60
2010,10,16,07,09,5.60
2010,10,16,07,10,5.60
2010,10,16,07,11,5.60
2010,10,16,07,12,5.60
2010,10,16,07,13,5.60
2010,10,16,07,14,5.60
2010,10,16,07,15,5.60
2010,10,16,07,16,5.60
2010,10,16,07,17,5.60
2010,10,16,07,18,5.60
2010,10,16,07,19,5.60
2010,10,16,07,20,5.60
2010,10,16,07,21,5.60
2010,10,16,07,22,5.60
2010,10,16,07,23,5.60
2010,10,16,07,24,5.50
2010,10,16,07,25,5.50
2010,10,16,07,26,5.50
2010,10,16,07,27,5.40
2010,10,16,07,28,5.40
2010,10,16,07,29,5.40
2010,10,16,07,30,5.30
2010,10,16,07,31,5.30
2010,10,16,07,32,5.30
2010,10,16,07,33,5.30
2010,10,16,07,34,5.20
2010,10,16,07,35,5.10
2010,10,16,07,36,5.10
2010,10,16,07,37,5.10
2010,10,16,07,38,5.00
2010,10,16,07,39,4.90
2010,10,16,07,40,4.90
2010,10,16,07,41,4.90
2010,10,16,07,42,4.90
2010,10,16,07,43,4.80
2010,10,16,07,44,4.80
2010,10,16,07,45,4.70
2010,10,16,07,46,4.70
2010,10,16,07,47,4.70
2010,10,16,07,48,4.70
2010,10,16,07,49,4.60
2010,10,16,07,50,4.60
2010,10,16,07,51,4.60
2010,10,16,07,52,4.60
2010,10,16,07,53,4.60
2010,10,16,07,54,4.60
2010,10,16,07,55,4.60
2010,10,16,07,56,4.60
2010,10,16,07,57,4.60
2010,10,16,07,58,4.60
2010,10,16,07,59,4.60
2010,10,16,08,00,4.60
2010,10,16,08,01,4.60
2010,10,16,08,02,4.50
2010,10,16,08,03,4.50
2010,10,16,08,04,4.50
2010,10,16,08,05,4.50
2010,10,16,08,06,4.50
2010,10,16,08,07,4.50
2010,10,16,08,08,4.50
2010,10,16,08,09,4.50
2010,10,16,08,10,4.50
2010,10,16,08,11,4.50
2010,10,16,08,12,4.50
2010,10,16,08,13,4.50
2010,10,16,08,14,4.50
2010,10,16,08,15,4.50
2010,10,16,08,16,4.50
2010,10,16,08,17,4.60
2010,10,16,08,18,4.60
2010,10,16,08,19,4.60
2010,10,16,08,20,4.60
2010,10,16,08,21,4.60
2010,10,16,08,22,4.70
2010,10,16,08,23,4.70
2010,10,16,08,24,4.70
2010,10,16,08,25,4.80
2010,10,16,08,26,4.80
2010,10,16,08,27,4.90
2010,10,16,08,28,4.90
2010,10,16,08,29,4.90
2010,10,16,08,30,5.00
2010,10,16,08,31,5.10
2010,10,16,08,32,5.10
2010,10,16,08,33,5.10
2010,10,16,08,34,5.10
2010,10,16,08,35,5.20
2010,10,16,08,36,5.20
2010,10,16,08,37,5.30
2010,10,16,08,38,5.30
2010,10,16,08,39,5.30
2010,10,16,08,40,5.40
2010,10,16,08,41,5.40
2010,10,16,08,42,5.50
2010,10,16,08,43,5.50
2010,10,16,08,44,5.60
2010,10,16,08,45,5.60
2010,10,16,08,46,5.70
2010,10,16,08,47,5.70
2010,10,16,08,48,5.80
2010,10,16,08,49,5.90
2010,10,16,08,50,5.90
2010,10,16,08,51,6.00
2010,10,16,08,52,6.10
2010,10,16,08,53,6.10
2010,10,16,08,54,6.20
2010,10,16,08,55,6.20
2010,10,16,08,56,6.20
2010,10,16,08,57,6.30
2010,10,16,08,58,6.30
2010,10,16,08,59,6.40
2010,10,16,09,00,6.40
2010,10,16,09,01,6.50
2010,10,16,09,02,6.60
2010,10,16,09,03,6.60
2010,10,16,09,04,6.70
2010,10,16,09,05,6.70
2010,10,16,09,06,6.80
2010,10,16,09,07,6.80
2010,10,16,09,08,6.90
2010,10,16,09,09,6.90
2010,10,16,09,10,7.00
2010,10,16,09,11,7.00
2010,10,16,09,12,7.10
2010,10,16,09,13,7.10
2010,10,16,09,14,7.20
2010,10,16,09,15,7.20
2010,10,16,09,16,7.30
2010,10,16,09,17,7.30
2010,10,16,09,18,7.30
2010,10,16,09,19,7.30
2010,10,16,09,20,7.40
2010,10,16,09,21,7.40
2010,10,16,09,22,7.40
2010,10,16,09,23,7.40
2010,10,16,09,24,7.50
2010,10,16,09,25,7.50
2010,10,16,09,26,7.60
2010,10,16,09,27,7.60
2010,10,16,09,28,7.70
2010,10,16,09,29,7.70
2010,10,16,09,30,7.80
2010,10,16,09,31,7.80
2010,10,16,09,32,7.80
2010,10,16,09,33,7.90
2010,10,16,09,34,7.90
2010,10,16,09,35,8.00
2010,10,16,09,36,8.00
2010,10,16,09,37,8.10
2010,10,16,09,38,8.20
2010,10,16,09,39,8.20
2010,10,16,09,40,8.20
2010,10,16,09,41,8.20
2010,10,16,09,42,8.30
2010,10,16,09,43,8.30
2010,10,16,09,44,8.40
2010,10,16,09,45,8.40
2010,10,16,09,46,8.50
2010,10,16,09,47,8.50
2010,10,16,09,48,8.60
2010,10,16,09,49,8.60
2010,10,16,09,50,8.70
2010,10,16,09,51,8.70
2010,10,16,09,52,8.70
2010,10,16,09,53,8.80
2010,10,16,09,54,8.80
2010,10,16,09,55,8.80
2010,10,16,09,56,8.90
2010,10,16,09,57,8.90
2010,10,16,09,58,8.90
2010,10,16,09,59,8.90
2010,10,16,10,00,9.00
2010,10,16,10,01,9.00
2010,10,16,10,02,9.00
2010,10,16,10,03,9.00
2010,10,16,10,04,9.00
2010,10,16,10,05,9.10
2010,10,16,10,06,9.10
2010,10,16,10,07,9.10
2010,10,16,10,08,9.20
2010,10,16,10,09,9.20
2010,10,16,10,10,9.20
2010,10,16,10,11,9.20
2010,10,16,10,12,9.30
2010,10,16,10,13,9.30
2010,10,16,10,14,9.30
2010,10,16,10,15,9.40
2010,10,16,10,16,9.40
2010,10,16,10,17,9.40
2010,10,16,10,18,9.50
2010,10,16,10,19,9.50
2010,10,16,10,20,9.60
2010,10,16,10,21,9.60
2010,10,16,10,22,9.60
2010,10,16,10,23,9.60
2010,10,16,10,24,9.60
2010,10,16,10,25,9.60
2010,10,16,10,26,9.60
2010,10,16,10,27,9.60
2010,10,16,10,28,9.60
2010,10,16,10,29,9.60
2010,10,16,10,30,9.60
2010,10,16,10,31,9.60
2010,10,16,10,32,9.70
2010,10,16,10,33,9.70
2010,10,16,10,34,9.70
2010,10,16,10,35,9.80
2010,10,16,10,36,9.90
2010,10,16,10,37,9.90
2010,10,16,10,38,9.90
2010,10,16,10,39,9.90
2010,10,16,10,40,9.90
2010,10,16,10,41,10.00
2010,10,16,10,42,10.10
2010,10,16,10,43,10.10
2010,10,16,10,44,10.10
2010,10,16,10,45,10.10
2010,10,16,10,46,10.10
2010,10,16,10,47,10.10
2010,10,16,10,48,10.10
2010,10,16,10,49,10.10
2010,10,16,10,50,10.10
2010,10,16,10,51,10.10
2010,10,16,10,52,10.10
2010,10,16,10,53,10.10
2010,10,16,10,54,10.10
2010,10,16,10,55,10.20
2010,10,16,10,56,10.20
2010,10,16,10,57,10.20
2010,10,16,10,58,10.30
2010,10,16,10,59,10.30
2010,10,16,11,00,10.30
2010,10,16,11,01,10.30
2010,10,16,11,02,10.40
2010,10,16,11,03,10.40
2010,10,16,11,04,10.40
2010,10,16,11,05,10.40
2010,10,16,11,06,10.40
2010,10,16,11,07,10.40
2010,10,16,11,08,10.30
2010,10,16,11,09,10.30
2010,10,16,11,10,10.40
2010,10,16,11,11,10.40
2010,10,16,11,12,10.30
2010,10,16,11,13,10.30
2010,10,16,11,14,10.30
2010,10,16,11,15,10.40
2010,10,16,11,16,10.40
2010,10,16,11,17,10.40
2010,10,16,11,18,10.40
2010,10,16,11,19,10.40
2010,10,16,11,20,10.40
2010,10,16,11,21,10.40
2010,10,16,11,22,10.40
2010,10,16,11,23,10.40
2010,10,16,11,24,10.40
2010,10,16,11,25,10.40
2010,10,16,11,26,10.40
2010,10,16,11,27,10.50
2010,10,16,11,28,10.60
2010,10,16,11,29,10.60
2010,10,16,11,30,10.60
2010,10,16,11,31,10.60
2010,10,16,11,32,10.60
2010,10,16,11,33,10.60
2010,10,16,11,34,10.60
2010,10,16,11,35,10.60
2010,10,16,11,36,10.60
2010,10,16,11,37,10.60
2010,10,16,11,38,10.60
2010,10,16,11,39,10.60
2010,10,16,11,40,10.60
2010,10,16,11,41,10.60
2010,10,16,11,42,10.70
2010,10,16,11,43,10.70
2010,10,16,11,44,10.80
2010,10,16,11,45,10.80
2010,10,16,11,46,10.80
2010,10,16,11,47,10.80
2010,10,16,11,48,10.80
2010,10,16,11,49,10.80
2010,10,16,11,50,10.90
2010,10,16,11,51,10.90
2010,10,16,11,52,10.90
2010,10,16,11,53,10.90
2010,10,16,11,54,10.90
2010,10,16,11,55,10.90
2010,10,16,11,56,10.90
2010,10,16,11,57,10.90
2010,10,16,11,58,10.90
2010,10,16,11,59,10.90
2010,10,16,12,00,10.90
2010,10,16,12,01,10.90
2010,10,16,12,02,10.80
2010,10,16,12,03,10.80
2010,10,16,12,04,10.80
2010,10,16,12,05,10.90
2010,10,16,12,06,10.90
2010,10,16,12,07,10.90
2010,10,16,12,08,10.90
2010,10,16,12,09,10.90
2010,10,16,12,10,10.90
2010,10,16,12,11,10.90
2010,10,16,12,12,10.90
2010,10,16,12,13,10.90
2010,10,16,12,14,10.90
2010,10,16,12,15,10.90
2010,10,16,12,16,10.90
2010,10,16,12,17,10.90
2010,10,16,12,18,10.90
2010,10,16,12,19,10.80
2010,10,16,12,20,10.80
2010,10,16,12,21,10.80
2010,10,16,12,22,10.90
2010,10,16,12,23,10.90
2010,10,16,12,24,10.90
2010,10,16,12,25,10.90
2010,10,16,12,26,10.90
2010,10,16,12,27,10.90
2010,10,16,12,28,10.90
2010,10,16,12,29,10.90
2010,10,16,12,30,10.90
2010,10,16,12,31,10.90
2010,10,16,12,32,10.90
2010,10,16,12,33,10.90
2010,10,16,12,34,11.00
2010,10,16,12,35,11.10
2010,10,16,12,36,11.00
2010,10,16,12,37,11.10
2010,10,16,12,38,11.10
2010,10,16,12,39,11.10
2010,10,16,12,40,11.10
2010,10,16,12,41,11.10
2010,10,16,12,42,11.00
2010,10,16,12,43,10.90
2010,10,16,12,44,10.90
2010,10,16,12,45,10.90
2010,10,16,12,46,10.90
2010,10,16,12,47,10.90
2010,10,16,12,48,10.90
2010,10,16,12,49,11.00
2010,10,16,12,50,11.00
2010,10,16,12,51,11.10
2010,10,16,12,52,11.10
2010,10,16,12,53,11.10
2010,10,16,12,54,11.10
2010,10,16,12,55,11.10
2010,10,16,12,56,11.10
2010,10,16,12,57,11.10
2010,10,16,12,58,11.10
2010,10,16,12,59,11.20
2010,10,16,13,00,11.20
2010,10,16,13,01,11.20
2010,10,16,13,02,11.20
2010,10,16,13,03,11.30
2010,10,16,13,04,11.30
2010,10,16,13,05,11.30
2010,10,16,13,06,11.40
2010,10,16,13,07,11.40
2010,10,16,13,08,11.40
2010,10,16,13,09,11.40
2010,10,16,13,10,11.40
2010,10,16,13,11,11.40
2010,10,16,13,12,11.40
2010,10,16,13,13,11.40
2010,10,16,13,14,11.50
2010,10,16,13,15,11.40
2010,10,16,13,16,11.40
2010,10,16,13,17,11.40
2010,10,16,13,18,11.40
2010,10,16,13,19,11.30
2010,10,16,13,20,11.30
2010,10,16,13,21,11.10
2010,10,16,13,22,11.10
2010,10,16,13,23,11.00
2010,10,16,13,24,10.90
2010,10,16,13,25,10.90
2010,10,16,13,26,10.90
2010,10,16,13,27,10.90
2010,10,16,13,28,10.90
2010,10,16,13,29,11.00
2010,10,16,13,30,11.10
2010,10,16,13,31,11.10
2010,10,16,13,32,11.10
2010,10,16,13,33,11.10
2010,10,16,13,34,11.10
2010,10,16,13,35,11.10
2010,10,16,13,36,10.90
2010,10,16,13,37,10.90
2010,10,16,13,38,10.90
2010,10,16,13,39,10.90
2010,10,16,13,40,10.90
2010,10,16,13,41,10.90
2010,10,16,13,42,10.90
2010,10,16,13,43,10.90
2010,10,16,13,44,10.90
2010,10,16,13,45,10.80
2010,10,16,13,46,10.80
2010,10,16,13,47,10.80
2010,10,16,13,48,10.90
2010,10,16,13,49,10.80
2010,10,16,13,50,10.80
2010,10,16,13,51,10.80
2010,10,16,13,52,10.90
2010,10,16,13,53,10.90
2010,10,16,13,54,10.90
2010,10,16,13,55,10.90
2010,10,16,13,56,10.90
2010,10,16,13,57,11.00
2010,10,16,13,58,11.00
2010,10,16,13,59,11.10
2010,10,16,14,00,11.10
2010,10,16,14,01,11.10
2010,10,16,14,02,11.10
2010,10,16,14,03,11.10
2010,10,16,14,04,11.10
2010,10,16,14,05,11.10
2010,10,16,14,06,11.10
2010,10,16,14,07,11.20
2010,10,16,14,08,11.20
2010,10,16,14,09,11.20
2010,10,16,14,10,11.20
2010,10,16,14,11,11.30
2010,10,16,14,12,11.30
2010,10,16,14,13,11.30
2010,10,16,14,14,11.30
2010,10,16,14,15,11.30
2010,10,16,14,16,11.30
2010,10,16,14,17,11.30
2010,10,16,14,18,11.20
2010,10,16,14,19,11.20
2010,10,16,14,20,11.10
2010,10,16,14,21,11.10
2010,10,16,14,22,11.10
2010,10,16,14,23,11.10
2010,10,16,14,24,11.10
2010,10,16,14,25,11.10
2010,10,16,14,26,11.10
2010,10,16,14,27,11.10
2010,10,16,14,28,11.10
2010,10,16,14,29,11.10
2010,10,16,14,30,11.20
2010,10,16,14,31,11.20
2010,10,16,14,32,11.30
2010,10,16,14,33,11.40
2010,10,16,14,34,11.40
2010,10,16,14,35,11.40
2010,10,16,14,36,11.40
2010,10,16,14,37,11.40
2010,10,16,14,38,11.40
2010,10,16,14,39,11.40
2010,10,16,14,40,11.40
2010,10,16,14,41,11.40
2010,10,16,14,42,11.50
2010,10,16,14,43,11.60
2010,10,16,14,44,11.60
2010,10,16,14,45,11.60
2010,10,16,14,46,11.60
2010,10,16,14,47,11.60
2010,10,16,14,48,11.60
2010,10,16,14,49,11.60
2010,10,16,14,50,11.60
2010,10,16,14,51,11.60
2010,10,16,14,52,11.50
2010,10,16,14,53,11.40
2010,10,16,14,54,11.40
2010,10,16,14,55,11.50
2010,10,16,14,56,11.60
2010,10,16,14,57,11.60
2010,10,16,14,58,11.60
2010,10,16,14,59,11.60
2010,10,16,15,00,11.60
2010,10,16,15,01,11.60
2010,10,16,15,02,11.50
2010,10,16,15,03,11.40
2010,10,16,15,04,11.40
2010,10,16,15,05,11.30
2010,10,16,15,06,11.30
2010,10,16,15,07,11.20
2010,10,16,15,08,11.20
2010,10,16,15,09,11.30
2010,10,16,15,10,11.30
2010,10,16,15,11,11.30
2010,10,16,15,12,11.40
2010,10,16,15,13,11.40
2010,10,16,15,14,11.50
2010,10,16,15,15,11.50
2010,10,16,15,16,11.40
2010,10,16,15,17,11.40
2010,10,16,15,18,11.40
2010,10,16,15,19,11.40
2010,10,16,15,20,11.40
2010,10,16,15,21,11.40
2010,10,16,15,22,11.40
2010,10,16,15,23,11.50
2010,10,16,15,24,11.60
2010,10,16,15,25,11.60
2010,10,16,15,26,11.60
2010,10,16,15,27,11.60
2010,10,16,15,28,11.60
2010,10,16,15,29,11.60
2010,10,16,15,30,11.70
2010,10,16,15,31,11.70
2010,10,16,15,32,11.60
2010,10,16,15,33,11.60
2010,10,16,15,34,11.60
2010,10,16,15,35,11.60
2010,10,16,15,36,11.60
2010,10,16,15,37,11.60
2010,10,16,15,38,11.60
2010,10,16,15,39,11.60
2010,10,16,15,40,11.60
2010,10,16,15,41,11.70
2010,10,16,15,42,11.70
2010,10,16,15,43,11.70
2010,10,16,15,44,11.70
2010,10,16,15,45,11.80
2010,10,16,15,46,11.70
2010,10,16,15,47,11.70
2010,10,16,15,48,11.70
2010,10,16,15,49,11.60
2010,10,16,15,50,11.60
2010,10,16,15,51,11.60
2010,10,16,15,52,11.60
2010,10,16,15,53,11.60
2010,10,16,15,54,11.60
2010,10,16,15,55,11.70
2010,10,16,15,56,11.70
2010,10,16,15,57,11.80
2010,10,16,15,58,11.90
2010,10,16,15,59,12.00
2010,10,16,16,00,12.00
2010,10,16,16,01,12.10
2010,10,16,16,02,12.20
2010,10,16,16,03,12.20
2010,10,16,16,04,12.20
2010,10,16,16,05,12.20
2010,10,16,16,06,12.20
2010,10,16,16,07,12.20
2010,10,16,16,08,12.20
2010,10,16,16,09,12.20
2010,10,16,16,10,12.30
2010,10,16,16,11,12.30
2010,10,16,16,12,12.20
2010,10,16,16,13,12.20
2010,10,16,16,14,12.20
2010,10,16,16,15,12.20
2010,10,16,16,16,12.10
2010,10,16,16,17,12.10
2010,10,16,16,18,12.00
2010,10,16,16,19,12.00
2010,10,16,16,20,11.90
2010,10,16,16,21,11.80
2010,10,16,16,22,11.80
2010,10,16,16,23,11.80
2010,10,16,16,24,11.80
2010,10,16,16,25,11.70
2010,10,16,16,26,11.70
2010,10,16,16,27,11.70
2010,10,16,16,28,11.70
2010,10,16,16,29,11.70
2010,10,16,16,30,11.80
2010,10,16,16,31,11.80
2010,10,16,16,32,11.80
2010,10,16,16,33,11.80
2010,10,16,16,34,11.80
2010,10,16,16,35,11.90
2010,10,16,16,36,11.90
2010,10,16,16,37,12.00
2010,10,16,16,38,12.00
2010,10,16,16,39,12.00
2010,10,16,16,40,12.10
2010,10,16,16,41,12.10
2010,10,16,16,42,12.10
2010,10,16,16,43,12.10
2010,10,16,16,44,12.10
2010,10,16,16,45,12.10
2010,10,16,16,46,12.10
2010,10,16,16,47,12.00
2010,10,16,16,48,12.00
2010,10,16,16,49,12.00
2010,10,16,16,50,12.00
2010,10,16,16,51,11.90
2010,10,16,16,52,11.90
2010,10,16,16,53,11.90
2010,10,16,16,54,11.80
2010,10,16,16,55,11.80
2010,10,16,16,56,11.80
2010,10,16,16,57,11.70
2010,10,16,16,58,11.70
2010,10,16,16,59,11.70
2010,10,16,17,00,11.60
2010,10,16,17,01,11.60
2010,10,16,17,02,11.60
2010,10,16,17,03,11.60
2010,10,16,17,04,11.60
2010,10,16,17,05,11.60
2010,10,16,17,06,11.40
2010,10,16,17,07,11.40
2010,10,16,17,08,11.40
2010,10,16,17,09,11.40
2010,10,16,17,10,11.40
2010,10,16,17,11,11.40
2010,10,16,17,12,11.40
2010,10,16,17,13,11.40
2010,10,16,17,14,11.30
2010,10,16,17,15,11.30
2010,10,16,17,16,11.30
2010,10,16,17,17,11.30
2010,10,16,17,18,11.30
2010,10,16,17,19,11.30
2010,10,16,17,20,11.30
2010,10,16,17,21,11.20
2010,10,16,17,22,11.20
2010,10,16,17,23,11.20
2010,10,16,17,24,11.20
2010,10,16,17,25,11.20
2010,10,16,17,26,11.20
2010,10,16,17,27,11.10
2010,10,16,17,28,11.10
2010,10,16,17,29,11.10
2010,10,16,17,30,11.10
2010,10,16,17,31,11.10
2010,10,16,17,32,11.10
2010,10,16,17,33,11.10
2010,10,16,17,34,11.10
2010,10,16,17,35,11.00
2010,10,16,17,36,10.90
2010,10,16,17,37,10.90
2010,10,16,17,38,10.90
2010,10,16,17,39,10.90
2010,10,16,17,40,10.90
2010,10,16,17,41,10.90
2010,10,16,17,42,10.80
2010,10,16,17,43,10.80
2010,10,16,17,44,10.70
2010,10,16,17,45,10.70
2010,10,16,17,46,10.70
2010,10,16,17,47,10.60